STARLINK-35396, 65828

Orbit data source: Space-Track

STARLINK-35396, 65828 is a payload satellite owned by SpaceX/Seattle (US) in LEO that was launched on Mon, 29 Sep 2025 UTC via an FALCON 9 launch vehicle from the Air Force Western Test Range (AFWTR). Payload-class satellites include a variety of spacecraft equipped with specific instruments for various scientific and technological missions. These include communications satellites like Starlink; space stations such as the ISS; scientific satellites like the Hubble; Earth observation satellites from companies like Planet Labs, Umbra, and HawkEye 360; GPS; miniature CubeSats for education and research; and military/defense satellites.

Loading next visibility...
Identifier
65828, 2025-221F
Orbit
LEO
Country
Flag of USUS
Related business
Manufacturer
SpaceX/Seattle
Mission
Operational spacecraft
Bus & Motor
STARLINK V2MO, Unknown motor
Mass
575 kg wet, ~530 kg dry
Launch date (UTC)
2025-09-29 (3 weeks ago)
Launch vehicle
FALCON 9
Launch site
Air Force Western Test Range (AFWTR)
Object type
Payload
Rocket body
Debris
Shape & HBR
Unknown shape, 17.7 m
Radar Cross Section
RCS unknown

Expand to show TLE details & history
Last TLE update: 7 hours ago

TLE from 7 hours ago
0 STARLINK-35396
1 65828U 25221F   25290.83335647 -.01689941  00000-0 -25806-1 0  9990
2 65828  53.1596  34.6712 0001020  60.6671 258.7601 15.56848699  4219
Epoch: 2025-10-17T20:00Z
TLE epoch observation values (Epoch: 2025-10-17T20:00:01.999Z)
Latitude
-31.58601°
Longitude
40.82611°
Altitude
406.68 km
Speed
7.666 km/s
True Right ascension
00h 29m 37s
True Declination
-31° 25' 29"
Sunlit
Object was in full shadow at epoch
Visualization orbit readout
Latitude
Unknown
Longitude
Unknown
Altitude
Unknown
Speed
Unknown
Apparent Right ascension
Unknown
Apparent Declination
Unknown
Sunlit
N/A
Visualization observer readout
Local Sidereal Time
21:30:24
Azimuth
Unknown
Elevation
Unknown
Doppler factor
Unknown
Orbital elements
Apogee altitude
397.734 km
Perigee altitude
396.352 km
Semi-major axis
6,775.18 km
Eccentricity
0.0001
Inclination
53.1596°
RAAN
34.6712°
Arg. of periapsis
60.6671°
True anomaly
258.74864°
Mean anomaly
258.7601°
Eccentric anomaly
258.75437°
Mean motion
3.8919 °/min
Orbital period
92.5 mins
BSTAR
-0.025806
Loading maneuver chart data...
Computing Atmospheric mass density...
Loading historical data...
Loading historical data...
Loading historical data...
Loading historical data...
Loading historical data...
Loading historical data...
Loading historical data...

Documentation

Showing up to 5 results
|